Location: *
(42.0175°N, 9.4056°E)
Time: 10:22:49
(UTC+00:00)

Abrixas rocket - Pass Details

Date: 25 August 2019
Orbit: 364 x 371 km, 48.4° (Epoch: 18 September)

Event Time Altitude Azimuth Distance (km) Brightness Sun altitude
Rises 19:27:22 0° 290° (WNW) 2,220 7.7 -14.4°
Reaches altitude 10° 19:29:40 10° 305° (NW) 1,373 6.3 -14.8°
Maximum altitude 19:32:14 23° 1° (N) 837 4.1 -15.2°
Enters shadow 19:34:16 13° 51° (NE) 1,203 4.4 -15.5°
